Location: Augustenthal
(51.7167°N, 10.2833°E)
Time: 20:43:04
(UTC+00:00)

Meteor 2-10 - Pass Details

Date: 18 May 2021
Orbit: 737 x 869 km, 81.2° (Epoch: 23 June)

Event Time Altitude Azimuth Distance (km) Brightness Sun altitude
Rises 22:59:20 0° 348° (NNW) 3,325 8.9 -18.4°
Reaches altitude 10° 23:01:48 10° 352° (N) 2,369 7.8 -18.5°
Maximum altitude 23:07:04 61° 73° (ENE) 878 4.3 -18.5°
Enters shadow 23:09:40 28° 144° (SE) 1,390 4.9 -18.5°
